[[{"header":{"parameterUnit":"m.s-1","parameterCategory":1,"la1":30.2991,"la2":30.254,"lo1":-89.0895,"lo2":-89.0444,"dy":0.0017,"dx":0.0017,"nx":28,"ny":28,"refTime":"2024-06-28T09:00:00:Z","depth":0,"parameterNumber":2,"parameterNumberName":"U-component_of_WINDS"},"data":[0,0,0,0,0,0,0,0,0,0,0,0,0,0,0,0,0,0,0,0,0,0,0,0,0,0,0,0,0,0,0,0,0,0,0,0,0,0,0,0,0,0,0,0,0,0,0,0,0,0,0,0,0,0,0,0,0,0,2.2938,2.2939,0,2.3009,2.301,2.301,2.3009,2.3008,2.3007,2.3006,2.3074,2.3077,2.308,0,0,0,0,0,0,0,0,0,0,0,0,0,2.2795,2.2798,2.2938,2.2939,2.294,2.3009,2.301,2.3011,2.3009,2.3008,2.3007,2.3005,2.3073,2.3077,2.308,0,0,0,0,0,0,0,0,0,0,0,0,0,2.2861,2.2799,2.2938,2.2947,2.2949,2.3009,2.301,2.3011,2.3009,2.3008,2.3006,2.3005,2.3072,2.3076,2.308,2.3134,0,0,2.3093,2.3095,0,0,0,0,0,0,0,0,2.2857,2.2866,2.2945,2.2947,2.2949,2.2999,2.2984,2.3052,2.3009,2.2986,2.3006,2.3004,2.305,2.3056,2.3072,2.3137,2.314,2.3093,2.3096,2.3097,2.3098,0,0,0,0,0,0,0,2.2852,2.2863,2.2966,2.2946,2.2948,2.2946,2.2954,2.2997,2.3025,2.2988,2.2988,2.2997,2.3051,2.3068,2.3074,2.3141,2.3093,2.3097,2.3099,2.3101,2.325,2.3252,0,0,0,0,0,0,2.2847,2.2859,2.2964,2.2968,2.2898,2.295,2.2958,2.2984,2.3025,2.303,2.2998,2.2996,2.3062,2.3069,2.3076,2.3139,2.3097,2.3101,2.3103,2.3249,2.3251,2.3252,0,0,0,0,0,0,2.2844,2.2856,2.2961,2.2914,2.2927,2.2954,2.2982,2.2986,2.3004,2.3032,2.3036,2.3011,2.3061,2.307,2.3119,2.3142,2.3103,2.3107,2.3247,2.325,2.3252,2.3267,0,0,0,0,0,0,2.2839,2.2855,2.2877,2.2914,2.2929,2.3004,2.2984,2.2988,2.3011,2.301,2.3046,2.305,2.3061,2.3113,2.3123,2.3147,2.311,2.3245,2.3248,2.3251,2.3265,2.327,2.3274,0,0,0,0,0,2.2834,2.2878,2.2878,2.2891,2.2958,2.3006,2.3014,2.3027,2.3013,2.3034,2.3052,2.3049,2.3138,2.3118,2.313,2.3154,2.3244,2.3247,2.3251,2.3263,2.3269,2.3274,0,0,0,0,0,0,2.2842,2.2883,2.2884,2.2942,2.297,2.3005,2.3033,2.3033,2.3065,2.3063,2.3075,2.3083,2.3132,2.3148,2.3125,2.3207,2.3189,2.3195,2.3194,2.32,2.3205,2.3199,2.3113,0,0,0,0,0,2.2851,2.2888,2.2922,2.2969,2.2984,2.3006,2.3027,2.3034,2.3064,2.3076,2.3097,2.3125,2.3159,2.3181,2.3214,2.3268,2.3274,2.329,2.3295,2.3299,2.3303,2.333,2.3337,2.3264,2.3264,2.3264,0,0,2.2869,2.2896,2.2918,2.2971,2.2994,2.303,2.3016,2.3055,2.3081,2.3081,2.3128,2.3145,2.3176,2.3227,2.3251,2.3242,2.3325,2.3303,2.3306,2.3308,2.3334,2.3341,2.3347,2.3266,2.3266,2.3265,0,0,2.2919,2.2945,2.2986,2.3009,2.3045,2.3059,2.3068,2.3104,2.3115,2.3163,2.3162,2.3193,2.3252,2.3273,2.3292,2.3349,2.3346,2.3359,2.3383,2.3409,2.3414,2.3419,2.3437,2.3444,2.3364,2.3364,2.3364,0,2.2936,2.2992,2.3007,2.3046,2.3067,2.307,2.311,2.3132,2.3176,2.319,2.318,2.3253,2.3274,2.3329,2.3342,2.3359,2.3368,2.3354,2.3413,2.3418,2.3423,2.344,2.3447,2.3365,2.3365,2.3365,2.3365,0,2.301,2.3049,2.3077,2.312,2.3145,2.3185,2.3203,2.3227,2.3231,2.3245,2.3292,2.3318,2.3355,2.3369,2.3374,2.3424,2.3417,2.341,2.3392,2.3431,2.3447,2.3453,2.3367,2.3366,2.3366,2.3366,0,0,2.3067,2.3117,2.3127,2.3145,2.3184,2.3213,2.3251,2.3288,2.3307,2.3337,2.3367,2.3416,2.3409,2.3431,2.3438,2.3461,2.3501,2.3451,2.3452,2.3457,2.3554,2.3557,2.3565,2.35,2.3501,2.3502,2.355,0,2.3119,2.3189,2.3202,2.3262,2.3296,2.3298,2.3331,2.3357,2.3371,2.3401,2.3416,2.3449,2.3439,2.3452,2.3475,2.3491,2.352,2.3488,2.3526,2.3527,2.3516,2.3574,2.3578,2.3622,2.3557,2.3558,2.3559,0,2.319,2.3222,2.3285,2.3317,2.3332,2.3361,2.3395,2.3424,2.3453,2.3461,2.3484,2.3488,2.3525,2.3507,2.3557,2.3535,2.3551,2.3561,2.3563,2.3565,2.3544,2.3575,2.3637,2.3642,2.3569,2.3568,2.3568,0,2.3222,2.3281,2.3326,2.3342,2.3381,2.3401,2.3418,2.3445,2.3466,2.3495,2.3508,2.3541,2.3558,2.3582,2.3594,2.358,2.3642,2.3626,2.3648,2.3648,2.366,2.3659,2.3723,2.3674,2.3674,2.3674,2.3674,0,2.3278,2.3316,2.334,2.3367,2.3409,2.3423,2.3463,2.3479,2.3503,2.3532,2.3536,2.3562,2.3578,2.3606,2.3615,2.3653,2.3662,2.3668,2.367,2.3666,2.3665,2.3676,2.3672,2.3676,2.3675,2.3675,2.3675,0,2.332,2.3338,2.3387,2.342,2.3429,2.3457,2.3484,2.351,2.3524,2.356,2.3569,2.359,2.3623,2.3638,2.3679,2.3685,2.3728,2.3729,2.3719,2.3719,2.374,2.3737,2.3811,2.382,2.3768,2.3768,2.3769,0,2.3354,2.3383,2.3419,2.3439,2.3456,2.3489,2.351,2.3524,2.3545,2.3579,2.3599,2.3633,2.366,2.3712,2.373,2.3761,2.3761,2.3785,2.3765,2.376,2.3758,2.3755,2.3757,2.3787,2.3788,2.3788,2.3789,0,2.341,2.3417,2.3448,2.3482,2.3507,2.3534,2.356,2.3576,2.3594,2.3617,2.3652,2.3673,2.3714,2.3746,2.3778,2.3793,2.3793,2.3795,2.3801,2.3797,2.3789,2.3791,2.3726,2.3793,2.3792,2.3792,2.3792,2.3792,2.3447,2.3472,2.3501,2.3534,2.3556,2.358,2.3605,2.3622,2.3651,2.3686,2.3693,2.3728,2.3753,2.3796,2.3812,2.3839,2.3833,2.3843,2.3845,2.3847,2.3847,2.3787,2.3845,2.3845,2.3845,2.3845,2.3845,0,2.3502,2.352,2.3551,2.3588,2.3613,2.3613,2.3641,2.3662,2.3694,2.3719,2.3745,2.3783,2.3814,2.3834,2.3865,2.3882,2.3882,2.3889,2.3887,2.389,2.3852,2.3842,2.3888,2.3888,2.3888,2.3888,2.3888,2.3888,2.3533,2.3574,2.3585,2.3636,2.3653,2.3689,2.3705,2.3726,2.3746,2.3788,2.3814,2.3828,2.3849,2.3881,2.3909,2.3914,2.3923,2.393,2.3934,2.3898,2.3893,2.3889,2.3879,2.3933,2.3933,2.397,2.3971,2.3971]},{"header":{"parameterUnit":"m.s-1","parameterCategory":1,"la1":30.2991,"la2":30.254,"lo1":-89.0895,"lo2":-89.0444,"dy":0.0017,"dx":0.0017,"nx":28,"ny":28,"refTime":"2024-06-28T09:00:00:Z","depth":0,"parameterNumber":3,"parameterNumberName":"V-component_of_WINDS"},"data":[0,0,0,0,0,0,0,0,0,0,0,0,0,0,0,0,0,0,0,0,0,0,0,0,0,0,0,0,0,0,0,0,0,0,0,0,0,0,0,0,0,0,0,0,0,0,0,0,0,0,0,0,0,0,0,0,0,0,6.0248,6.025,0,6.0435,6.0437,6.0439,6.042,6.0417,6.0414,6.0411,6.0595,6.0602,6.061,0,0,0,0,0,0,0,0,0,0,0,0,0,5.9863,5.9871,6.0247,6.025,6.0252,6.0434,6.0437,6.0439,6.042,6.0417,6.0413,6.041,6.0593,6.0601,6.0611,0,0,0,0,0,0,0,0,0,0,0,0,0,6.0038,5.9873,6.0247,6.0265,6.0268,6.0434,6.0437,6.044,6.0421,6.0416,6.0412,6.0408,6.059,6.0601,6.0612,6.077,0,0,6.0647,6.0652,0,0,0,0,0,0,0,0,6.0028,6.0052,6.026,6.0264,6.0268,6.0399,6.0369,6.055,6.0422,6.0363,6.0411,6.0406,6.0533,6.0549,6.0593,6.0778,6.0786,6.0648,6.0655,6.066,6.0663,0,0,0,0,0,0,0,6.0016,6.0044,6.0321,6.0263,6.0268,6.026,6.028,6.0403,6.047,6.0367,6.0367,6.0389,6.0534,6.0582,6.0597,6.0789,6.0647,6.0658,6.0665,6.0669,6.1109,6.1113,0,0,0,0,0,0,6.0001,6.0034,6.0315,6.0327,6.0135,6.027,6.0293,6.0361,6.0468,6.0481,6.0393,6.0388,6.0565,6.0584,6.0604,6.0794,6.0659,6.067,6.0677,6.1104,6.111,6.1115,0,0,0,0,0,0,5.9993,6.0026,6.0308,6.018,6.0216,6.0282,6.0359,6.0367,6.0416,6.0488,6.0499,6.043,6.0562,6.0588,6.0728,6.08,6.0675,6.0686,6.1098,6.1106,6.1112,6.1176,0,0,0,0,0,0,5.9982,6.0024,6.0087,6.0182,6.0223,6.0432,6.0363,6.0374,6.0436,6.0431,6.0526,6.0537,6.0561,6.0711,6.074,6.0813,6.0695,6.1092,6.1101,6.111,6.1168,6.1184,6.1199,0,0,0,0,0,5.9968,6.0096,6.009,6.0124,6.0304,6.0437,6.0459,6.0486,6.0442,6.0504,6.055,6.0534,6.0787,6.0726,6.0758,6.0836,6.1088,6.1099,6.1109,6.1161,6.1181,6.1198,0,0,0,0,0,0,6.0006,6.0109,6.0104,6.0267,6.0343,6.0433,6.0513,6.0507,6.0596,6.0588,6.0614,6.0636,6.0777,6.082,6.075,6.0992,6.0931,6.0949,6.0959,6.0979,6.0994,6.0981,6.0704,0,0,0,0,0,6.0034,6.0136,6.022,6.0355,6.0394,6.0447,6.0506,6.052,6.0599,6.0631,6.0687,6.0762,6.0858,6.0921,6.1013,6.1173,6.1192,6.1242,6.1257,6.127,6.1285,6.1369,6.1392,6.115,6.115,6.115,0,0,6.0091,6.016,6.0223,6.0365,6.0426,6.0528,6.0474,6.0586,6.066,6.0647,6.0784,6.0827,6.0912,6.1062,6.1131,6.1102,6.1355,6.1284,6.1293,6.1301,6.1383,6.1405,6.1426,6.1158,6.1157,6.1155,0,0,6.0249,6.0313,6.0432,6.0493,6.0587,6.0621,6.0649,6.0739,6.0768,6.0906,6.0897,6.0984,6.1151,6.1211,6.1263,6.1439,6.1427,6.1468,6.1549,6.1631,6.165,6.1667,6.1728,6.175,6.1483,6.1483,6.1483,0,6.0308,6.0465,6.0493,6.0605,6.0666,6.0659,6.0778,6.0835,6.0953,6.0994,6.096,6.1167,6.1224,6.1386,6.1429,6.1472,6.1503,6.1458,6.1646,6.1663,6.1679,6.1738,6.1761,6.1488,6.1487,6.1487,6.1486,0,6.0532,6.064,6.0725,6.084,6.091,6.1025,6.1067,6.1134,6.114,6.1176,6.1314,6.1382,6.1487,6.1526,6.1534,6.1689,6.1668,6.164,6.158,6.1706,6.1761,6.1784,6.1494,6.1492,6.1491,6.149,0,0,6.0721,6.0849,6.0879,6.093,6.1031,6.1114,6.1225,6.133,6.1386,6.1466,6.1559,6.1698,6.1672,6.1731,6.1744,6.1816,6.1949,6.1779,6.1781,6.1807,6.2121,6.2141,6.2167,6.1941,6.1945,6.1949,6.2113,0,6.0887,6.109,6.1116,6.1294,6.1392,6.1385,6.1482,6.1553,6.1588,6.1674,6.1712,6.181,6.1769,6.1804,6.1875,6.1918,6.2012,6.1906,6.2024,6.2028,6.2003,6.2196,6.2219,6.2372,6.2135,6.2139,6.2142,0,6.111,6.1197,6.1385,6.147,6.1512,6.16,6.1696,6.1779,6.1857,6.1877,6.1942,6.1946,6.2057,6.1992,6.2144,6.2072,6.2121,6.2148,6.2155,6.2167,6.2093,6.2212,6.2421,6.2444,6.2176,6.2174,6.2171,0,6.1226,6.1391,6.1525,6.1568,6.1671,6.1732,6.1777,6.1851,6.1911,6.1993,6.2032,6.2126,6.2177,6.2248,6.2274,6.2225,6.2425,6.2362,6.2442,6.2442,6.2485,6.2482,6.2704,6.2518,6.2518,6.2517,6.2517,0,6.1409,6.1524,6.1578,6.166,6.1787,6.1814,6.1938,6.198,6.2045,6.2132,6.213,6.2211,6.2243,6.2328,6.2349,6.247,6.2494,6.2511,6.2515,6.2511,6.2509,6.2544,6.2534,6.2523,6.2522,6.2521,6.252,0,6.1562,6.1603,6.1748,6.1833,6.1856,6.1946,6.2017,6.2094,6.2127,6.2237,6.2264,6.2316,6.2416,6.245,6.257,6.2584,6.2725,6.272,6.27,6.2701,6.2779,6.277,6.3031,6.3065,6.2857,6.2859,6.286,0,6.1677,6.1765,6.1859,6.1918,6.1966,6.2061,6.2123,6.2151,6.2214,6.2307,6.2372,6.2472,6.2553,6.2711,6.2758,6.2849,6.2846,6.293,6.2859,6.2851,6.2845,6.284,6.2847,6.2944,6.2946,6.2948,6.2949,0,6.1874,6.189,6.198,6.2076,6.215,6.2226,6.23,6.2348,6.2386,6.2456,6.2559,6.2622,6.2745,6.2842,6.2935,6.2977,6.2969,6.2971,6.2994,6.2991,6.2975,6.2983,6.2735,6.2965,6.2963,6.2962,6.2961,6.2961,6.2011,6.2088,6.2166,6.2265,6.2323,6.2392,6.2468,6.2511,6.2598,6.2702,6.2712,6.2822,6.2893,6.3016,6.3063,6.3147,6.3123,6.3157,6.3165,6.3173,6.3178,6.2962,6.3163,6.3163,6.3163,6.3162,6.3162,0,6.2207,6.2257,6.2347,6.2451,6.2528,6.2515,6.2595,6.266,6.2757,6.2826,6.2905,6.3021,6.3115,6.3168,6.3261,6.3317,6.3316,6.3341,6.3336,6.3346,6.3195,6.3166,6.334,6.334,6.334,6.334,6.334,6.334,6.2319,6.2448,6.2472,6.2628,6.2676,6.2785,6.2832,6.2893,6.2948,6.3078,6.3157,6.3191,6.3252,6.3349,6.3433,6.3445,6.3479,6.3506,6.3516,6.3375,6.3357,6.3339,6.3311,6.3514,6.3514,6.366,6.3661,6.3662]}]]